Hourly Weather Bashtanka

Today, 28 September, Monday

Time Temperature Precipitation Wind Pressure Humidity
00:00 +16°C° 0 mm 2 mps 755 mmHg 59%
01:00 +16°C° 0 mm 2 mps 756 mmHg 63%
02:00 +15°C° 0 mm 2 mps 757 mmHg 70%
03:00 +15°C° 0 mm 2 mps 757 mmHg 73%
04:00 +14°C° 0 mm 2 mps 757 mmHg 77%
05:00 +13°C° 0 mm 3 mps 757 mmHg 80%
06:00 +14°C° 0 mm 3 mps 758 mmHg 75%
07:00 +17°C° 0 mm 3 mps 758 mmHg 69%
08:00 +18°C° 0 mm 3 mps 758 mmHg 61%
09:00 +20°C° 0 mm 3 mps 758 mmHg 53%
10:00 +22°C° 0 mm 3 mps 758 mmHg 45%
11:00 +25°C° 0 mm 3 mps 758 mmHg 38%
12:00 +26°C° 0 mm 3 mps 758 mmHg 34%
13:00 +26°C° 0 mm 3 mps 758 mmHg 30%
14:00 +27°C° 0 mm 3 mps 757 mmHg 27%
15:00 +26°C° 0 mm 3 mps 757 mmHg 28%
16:00 +25°C° 0 mm 3 mps 757 mmHg 30%
17:00 +24°C° 0 mm 3 mps 757 mmHg 32%
18:00 +22°C° 0 mm 3 mps 756 mmHg 35%
19:00 +21°C° 0 mm 3 mps 756 mmHg 37%
20:00 +19°C° 0 mm 3 mps 756 mmHg 39%
21:00 +19°C° 0 mm 3 mps 756 mmHg 41%
22:00 +18°C° 0 mm 2 mps 756 mmHg 43%
23:00 +18°C° 0 mm 2 mps 756 mmHg 45%

Tomorrow, 29 September, Tuesday

Time Temperature Precipitation Wind Pressure Humidity
00:00 +17°C° 0 mm 2 mps 756 mmHg 49%
01:00 +17°C° 0 mm 2 mps 755 mmHg 52%
02:00 +16°C° 0 mm 2 mps 755 mmHg 55%
03:00 +16°C° 0 mm 3 mps 754 mmHg 62%
04:00 +14°C° 0 mm 3 mps 754 mmHg 70%
05:00 +14°C° 0 mm 3 mps 754 mmHg 77%
06:00 +17°C° 0 mm 4 mps 753 mmHg 73%
07:00 +18°C° 0 mm 4 mps 753 mmHg 68%
08:00 +19°C° 0 mm 4 mps 753 mmHg 64%
09:00 +22°C° 0 mm 5 mps 753 mmHg 56%
10:00 +25°C° 0 mm 5 mps 752 mmHg 49%
11:00 +27°C° 0 mm 6 mps 752 mmHg 41%
12:00 +28°C° 0 mm 6 mps 751 mmHg 40%
13:00 +29°C° 0 mm 6 mps 751 mmHg 38%
14:00 +30°C° 0 mm 7 mps 750 mmHg 37%
15:00 +28°C° 0.3 mm 7 mps 749 mmHg 44%
16:00 +27°C° 0.3 mm 7 mps 749 mmHg 51%
17:00 +26°C° 0.3 mm 7 mps 748 mmHg 58%
18:00 +23°C° 0.9 mm 7 mps 748 mmHg 65%
19:00 +22°C° 0.9 mm 8 mps 747 mmHg 72%
20:00 +20°C° 0.9 mm 8 mps 747 mmHg 78%
21:00 +20°C° 0.9 mm 8 mps 747 mmHg 80%
22:00 +20°C° 0.9 mm 8 mps 746 mmHg 81%
23:00 +21°C° 0.9 mm 8 mps 746 mmHg 82%

Day after tomorrow, 30 September, Wednesday

Time Temperature Precipitation Wind Pressure Humidity
00:00 +20°C° 1.2 mm 7 mps 746 mmHg 83%
01:00 +19°C° 1.2 mm 6 mps 746 mmHg 84%
02:00 +19°C° 1.2 mm 6 mps 746 mmHg 85%
03:00 +17°C° 0.8 mm 6 mps 746 mmHg 86%
04:00 +17°C° 0.8 mm 6 mps 746 mmHg 87%
05:00 +17°C° 0.8 mm 6 mps 745 mmHg 89%
06:00 +17°C° 0.7 mm 5 mps 746 mmHg 87%
07:00 +18°C° 0.7 mm 4 mps 746 mmHg 85%
08:00 +18°C° 0.7 mm 3 mps 746 mmHg 84%
09:00 +19°C° 0.4 mm 3 mps 746 mmHg 79%
10:00 +19°C° 0.4 mm 4 mps 746 mmHg 74%
11:00 +20°C° 0.4 mm 4 mps 746 mmHg 70%
12:00 +20°C° 0.7 mm 4 mps 746 mmHg 67%
13:00 +21°C° 0.7 mm 4 mps 746 mmHg 64%
14:00 +21°C° 0.7 mm 3 mps 746 mmHg 61%
15:00 +20°C° 0.6 mm 3 mps 746 mmHg 63%
16:00 +20°C° 0.6 mm 3 mps 746 mmHg 65%
17:00 +19°C° 0.6 mm 3 mps 746 mmHg 67%
18:00 +18°C° 0.3 mm 2 mps 746 mmHg 70%
19:00 +18°C° 0.3 mm 2 mps 747 mmHg 72%
20:00 +17°C° 0.3 mm 2 mps 747 mmHg 74%
21:00 +17°C° 0.2 mm 2 mps 747 mmHg 76%
22:00 +18°C° 0.2 mm 1 mps 747 mmHg 77%
23:00 +18°C° 0.2 mm 1 mps 747 mmHg 78%

1 October, Thursday

Time Temperature Precipitation Wind Pressure Humidity
00:00 +16°C° 0 mm 1 mps 747 mmHg 80%
01:00 +16°C° 0 mm 2 mps 747 mmHg 81%
02:00 +15°C° 0 mm 2 mps 747 mmHg 83%
03:00 +15°C° 0 mm 2 mps 747 mmHg 84%
04:00 +15°C° 0 mm 2 mps 747 mmHg 85%
05:00 +13°C° 0 mm 3 mps 748 mmHg 87%
06:00 +14°C° 0 mm 3 mps 748 mmHg 83%
07:00 +16°C° 0 mm 3 mps 748 mmHg 80%
08:00 +17°C° 0 mm 4 mps 748 mmHg 77%
09:00 +17°C° 0.1 mm 5 mps 748 mmHg 70%
10:00 +20°C° 0.1 mm 5 mps 748 mmHg 63%
11:00 +21°C° 0.1 mm 6 mps 748 mmHg 55%
12:00 +22°C° 0.1 mm 6 mps 748 mmHg 53%
13:00 +22°C° 0.1 mm 6 mps 748 mmHg 50%
14:00 +23°C° 0.1 mm 6 mps 748 mmHg 47%
15:00 +22°C° 0.1 mm 5 mps 748 mmHg 50%
16:00 +21°C° 0.1 mm 5 mps 748 mmHg 53%
17:00 +20°C° 0.1 mm 4 mps 748 mmHg 55%
18:00 +19°C° 0 mm 4 mps 749 mmHg 59%
19:00 +18°C° 0 mm 3 mps 749 mmHg 64%
20:00 +17°C° 0 mm 3 mps 750 mmHg 68%
21:00 +17°C° 0 mm 3 mps 750 mmHg 70%
22:00 +16°C° 0 mm 3 mps 750 mmHg 72%
23:00 +16°C° 0 mm 3 mps 750 mmHg 73%

2 October, Friday

Time Temperature Precipitation Wind Pressure Humidity
00:00 +16°C° 0 mm 3 mps 750 mmHg 75%
01:00 +16°C° 0 mm 3 mps 750 mmHg 76%
02:00 +15°C° 0 mm 2 mps 750 mmHg 77%
03:00 +15°C° 0 mm 2 mps 750 mmHg 78%
04:00 +15°C° 0 mm 2 mps 750 mmHg 79%
05:00 +15°C° 0 mm 2 mps 751 mmHg 81%
06:00 +16°C° 0 mm 2 mps 751 mmHg 78%
07:00 +17°C° 0 mm 2 mps 751 mmHg 76%
08:00 +17°C° 0 mm 2 mps 751 mmHg 74%
09:00 +18°C° 0.2 mm 2 mps 751 mmHg 68%
10:00 +20°C° 0.2 mm 1 mps 751 mmHg 61%
11:00 +21°C° 0.2 mm 1 mps 751 mmHg 55%
12:00 +22°C° 0.2 mm 1 mps 751 mmHg 55%
13:00 +22°C° 0.2 mm 1 mps 751 mmHg 54%
14:00 +21°C° 0.2 mm 2 mps 751 mmHg 53%
15:00 +20°C° 0.3 mm 2 mps 752 mmHg 58%
16:00 +19°C° 0.3 mm 2 mps 752 mmHg 63%
17:00 +19°C° 0.3 mm 2 mps 752 mmHg 68%
18:00 +18°C° 0.1 mm 2 mps 752 mmHg 71%
19:00 +19°C° 0.1 mm 1 mps 752 mmHg 74%
20:00 +18°C° 0.1 mm 1 mps 753 mmHg 76%
21:00 +16°C° 0 mm 1 mps 753 mmHg 78%
22:00 +16°C° 0 mm 1 mps 753 mmHg 80%
23:00 +16°C° 0 mm 1 mps 753 mmHg 82%

3 October, Saturday

Time Temperature Precipitation Wind Pressure Humidity
00:00 +16°C° 0 mm 1 mps 753 mmHg 82%
01:00 +15°C° 0 mm 1 mps 753 mmHg 82%
02:00 +15°C° 0 mm 1 mps 753 mmHg 82%
03:00 +15°C° 0 mm 1 mps 753 mmHg 82%
04:00 +15°C° 0 mm 1 mps 753 mmHg 83%
05:00 +15°C° 0 mm 1 mps 754 mmHg 83%
06:00 +16°C° 0 mm 1 mps 754 mmHg 79%
07:00 +18°C° 0 mm 1 mps 754 mmHg 75%
08:00 +19°C° 0 mm 1 mps 754 mmHg 70%
09:00 +20°C° 0 mm 1 mps 754 mmHg 64%
10:00 +21°C° 0 mm 1 mps 754 mmHg 57%
11:00 +23°C° 0 mm 2 mps 754 mmHg 50%
12:00 +23°C° 0.1 mm 2 mps 754 mmHg 47%
13:00 +24°C° 0.1 mm 2 mps 754 mmHg 44%
14:00 +25°C° 0.1 mm 2 mps 754 mmHg 41%
15:00 +24°C° 0 mm 2 mps 754 mmHg 44%
16:00 +23°C° 0 mm 2 mps 754 mmHg 46%
17:00 +23°C° 0 mm 1 mps 754 mmHg 49%
18:00 +22°C° 0.1 mm 1 mps 754 mmHg 54%
19:00 +20°C° 0.1 mm 2 mps 754 mmHg 60%
20:00 +19°C° 0.1 mm 2 mps 754 mmHg 65%
21:00 +18°C° 0 mm 2 mps 754 mmHg 67%
22:00 +18°C° 0 mm 1 mps 754 mmHg 70%
23:00 +18°C° 0 mm 1 mps 755 mmHg 72%
Show more